Location: Bauerbach
(50.4985°N, 10.3912°E)
Time: 02:35:59
(UTC+00:00)

CZ-4C R/B - Pass Details

Date: 13 January 2026
Orbit: 483 x 1496 km, 63.4° (Epoch: 6 February)

Event Time Altitude Azimuth Distance (km) Brightness Sun altitude
Exits shadow 05:20:02 17° 328° (NNW) 2,130 3.9 -17.5°
Maximum altitude 05:23:31 27° 14° (NNE) 1,819 3.9 -17.0°
Drops below altitude 10° 05:29:34 10° 69° (ENE) 3,095 5.9 -16.0°
Sets 05:33:10 0° 81° (E) 4,230 7.1 -15.5°
